星链-35568(STARLINK-35568)

导读

STARLINK-35568是美国SpaceX星链星座的一颗卫星,于2025年11月15日发射升空,属于星链互联网卫星星座组网的组成部分。该卫星旨在为全球范围内用户提供低延迟、高速率的宽带互联网服务,依托近地轨道部署,可覆盖偏远地区与传统网络覆盖不足区域,进一步扩充星链星座的服务能力与覆盖范围。

Basic Information
目录编号:
66473
目录名称:
STARLINK-35568
国际标识:
2025-262T
轨道中心:
EARTH
卫星名称:
星链-35568
卫星全名:
星链-35568(STARLINK-35568)
卫星状态:
在轨 (已飞行210 天)
发射日期:
2025-11-15 UTC
国别 :
美国 (US)
星等 :
--
Orbit Information
数据来源 国际轨道数据 AOE轨道数据
星历时间 2026-06-13T11:57:48+0800
8小时前
查看轨道信息
2026-06-12T00:00:00+0800
1天前
查看轨道信息
半长轴 6861.082km 6861.21km
偏心率 0.0001555 0.0002029
轨道倾角 42.994° 43.003°
近地点辐角 273.355° 256.610°
升交点赤经 117.358° 125.825°
平近点角 86.713° 133.196°
近地点 481.878km 481.68km
远地点 484.012km 484.466km
周期 94.265分钟 94.267分钟
每日圈数 15.27615 15.275722
Detailed Information
固有亮度:
5
最大亮度:
2.5
卫星平台:
Starlink V1.0
覆盖范围:
全球
运营商:
太空探索技术公司
运营商所在国:
美国
制造商(研发单位):
太空探索技术公司
制造商所在国:
美国
使用方式:
暂无
Satellite Introduction
Starlink 计划是 SpaceX 推出的全球卫星互联网项目,通过发射低轨道卫星,为全球尤其是偏远地区提供高速、低延迟的互联网服务。自 2019 年起,Starlink 已部署数千颗卫星,旨在缩小全球数字鸿沟,推动互联网普及。该项目还为军事、航空等行业提供通信支持,带来广泛经济效益。
2D Orbit Map
3D Orbit Map
Orbit Altitude Analysis Chart
Orbit Inclination Analysis Chart
Orbit Comprehensive Analysis Chart
View Comprehensive Chart